Regional Weather Roundup
Issued by NWS

Home | Current Version | Previous Version | Graphics & Text | Print | Product List | Glossary On
Versions: 1 2 3 4 5 6 7 8 9 10 11 12 13 14 15 16 17 18 19 20 21 22 23 24 25 26 27 28 29 30 31 32 33 34 35 36 37 38 39 40 41 42 43 44 45 46 47 48 49 50
000
ASUS43 KDTX 220710
RWRMI
MICHIGAN HOURLY REGIONAL WEATHER ROUNDUP
NATIONAL WEATHER SERVICE DETROIT/PONTIAC MI
300 AM EDT TUE JUL 22 2014

NOTE: "FAIR" INDICATES FEW OR NO CLOUDS BELOW 12,000 FEET WITH NO
SIGNIFICANT WEATHER AND/OR OBSTRUCTION TO VISIBILITY.

MIZ047>049-052>055-059>063-066>070-074>076-081>083-220800-
SOUTHEAST LOWER MICHIGAN

CITY           SKY/WX    TMP DP  RH WIND       PRES   REMARKS
ADRIAN         CLEAR     62  60  93 CALM      30.12R
ALMA           CLEAR     66  64  91 CALM      30.09S
ANN ARBOR      FOG       58  56  93 CALM      30.11S VSB 3/4
BAD AXE        CLEAR     66  60  80 S3        30.10F
CARO           CLEAR     64  64  99 CALM      30.09F FOG
DETROIT CITY   CLEAR     70  58  65 CALM      30.10S
DETROIT        CLEAR     69  63  81 CALM      30.11S HAZE
FLINT          CLEAR     66  57  72 CALM      30.10S
GROSSE ILE     CLEAR     70  66  88 S5        30.09S
HILLSDALE      CLEAR     66  63  89 CALM      30.11F
HOWELL         CLEAR     65  60  82 SE3       30.10F

CITY           SKY/WX    TMP DP  RH WIND       PRES   REMARKS
JACKSON        CLEAR     68  60  75 S7        30.10F
LAMBERTVILLE   CLEAR     64  59  82 CALM      30.11R
LANSING        CLEAR     69  61  75 S6        30.10S
LAPEER         FAIR      61  59  93 CALM      30.11F
MASON          CLEAR     65  59  82 S3        30.10F
MONROE         CLEAR     64  61  88 CALM      30.09R
MT. CLEMENS    CLEAR     62  58  87 N2        30.10S
PONTIAC        CLEAR     64  57  78 CALM      30.11S
PORT HOPE        N/A     70  60  70 VRB6      30.07F
PORT HURON     FOG       57  57 100 CALM      30.11S VSB 1/4
TRI CITIES     CLEAR     70  63  78 S7        30.08F
TROY           CLEAR     68  57  68 CALM      30.12S
SAGINAW HB     CLEAR     68  63  83 S5        30.08F
$$
MIZ043>046-050>051-056>058-064>065-071>073-077>080-220800-
SOUTHWEST LOWER MICHIGAN

CITY           SKY/WX    TMP DP  RH WIND       PRES   REMARKS
BATTLE CREEK   CLEAR     69  63  81 S5        30.10S
BENTON HARBOR  CLEAR     64  62  93 S3        30.07S
BIG RAPIDS     CLEAR     63  63 100 CALM      30.07S
COLDWATER      CLEAR     66  64  93 CALM      30.11R
FREMONT        FAIR      66  64  93 CALM      30.06S
HOLLAND        CLEAR     68  64  87 S3        30.07S FOG
GRAND RAPIDS   CLEAR     68  65  90 S8        30.08S
IONIA          FAIR      64  62  93 S6        30.07F
KALAMAZOO      CLEAR     66  63  90 S3        30.08F
LUDINGTON      CLEAR     72  64  76 S7        30.04S
MARSHALL       CLEAR     64  62  93 CALM      30.10R
MOUNT PLEASANT CLEAR     65  64  97 CALM      30.07R
MUSKEGON       CLEAR     68  61  78 SE3       30.06R
SOUTH HAVEN    CLEAR     65  65 100 CALM      30.07S
$$
MIZ016>042-220800-
NORTHERN LOWER MICHIGAN

CITY           SKY/WX    TMP DP  RH WIND       PRES   REMARKS
ALPENA         CLEAR     69  64  84 SW3       30.05F
BEAVER ISLAND  CLEAR     71  61  72 S6        30.00F
BELLAIRE       CLEAR     68  62  81 CALM      30.02F
CADILLAC       CLEAR     65  63  91 S5        30.07F
CHARLEVOIX     CLEAR     71  63  75 S5        30.04F
FRANKFORT      CLEAR     72  61  68 SE5       30.01F
GAYLORD        CLEAR     73  61  65 SW6       30.07F
GRAYLING       CLEAR     59  59  98 CALM      30.08S FOG
HARBOR SPRINGS CLEAR     66  62  86 CALM      30.02F
HOUGHTON LAKE  CLEAR     65  64  97 CALM      30.08F FOG
MANISTEE       CLEAR     64  59  82 E3        30.03F
OSCODA         CLEAR     66  64  91 SW3       30.06F
PELLSTON       CLEAR     63  61  93 SE5       30.02F
ROGERS CITY    CLEAR     68  65  89 SW5       30.05S
TRAVERSE CITY  CLEAR     69  61  75 S3        30.01F
$$
MIZ007>008-015-220800-
EASTERN UPPER MICHIGAN

CITY           SKY/WX    TMP DP  RH WIND       PRES   REMARKS
KINROSS        CLEAR     63  61  94 SE6       30.01F
MACKINAC ISLAN CLEAR     68  63  83 S8        30.01F
NEWBERRY       CLEAR     64  57  78 S6        29.99S
S. S. MARIE    CLEAR     64  59  83 CALM      30.01F
$$
MIZ004>006-011>014-085-220800-
CENTRAL UPPER MICHIGAN

CITY           SKY/WX    TMP DP  RH WIND       PRES   REMARKS
MANISTIQUE     CLEAR     62  60  93 S3        29.97F
ESCANABA       CLEAR     66  61  82 S7        29.95S
MENOMINEE      CLEAR     72  63  73 SW8       29.95S
SAWYER-GWINN   CLEAR     68  64  88 S10       29.94F
$$
MIZ001>003-009>011-084-220800-
WESTERN UPPER MICHIGAN

CITY           SKY/WX    TMP DP  RH WIND       PRES   REMARKS
IRON MOUNTAIN  CLEAR     69  66  90 SE5       29.93F
HOUGHTON       CLEAR     74  68  81 S13       29.85F
IRONWOOD       CLOUDY    77  66  69 SW12G18   29.82F
$$

ABBREVIATIONS USED IN REMARKS
   TC - TEMPERATURE IN CELSIUS
  WCI - WIND CHILL INDEX
   HX - HEAT INDEX
  VSB - VISIBILITY



USA.gov is the U.S. government's official web portal to all federal, state and local government web resources and services.